| time (UTC) | temp C | wind direction | speed KPH | gust KPH | rain 1hr cm | rain 24hr cm | rain mn cm | humidity % | barometer mb |
| 20260508140300 | 7 | 304 | 0.0 | 0.0 | 0.00 | 0.00 | 0.00 | 91 | 1022.3 |
| 20260508134300 | 7 | 304 | 0.0 | 4.8 | 0.00 | 0.00 | 0.00 | 91 | 1022.0 |
| 20260508133300 | 7 | 304 | 0.0 | 4.8 | 0.00 | 0.00 | 0.00 | 91 | 1022.0 |
| 20260508131300 | 6 | 307 | 1.6 | 4.8 | 0.00 | 0.00 | 0.00 | 91 | 1021.7 |
| 20260508125300 | 6 | 309 | 1.6 | 8.0 | 0.00 | 0.00 | 0.00 | 91 | 1021.3 |
| 20260508124300 | 6 | 298 | 0.0 | 4.8 | 0.00 | 0.00 | 0.00 | 90 | 1021.3 |
| 20260508123300 | 6 | 296 | 0.0 | 3.2 | 0.00 | 0.00 | 0.00 | 90 | 1021.3 |
| 20260508122300 | 5 | 360 | 0.0 | 6.4 | 0.00 | 0.00 | 0.00 | 90 | 1021.0 |
| 20260508121300 | 5 | 297 | 1.6 | 6.4 | 0.00 | 0.00 | 0.00 | 90 | 1021.0 |
| 20260508120300 | 4 | 360 | 3.2 | 6.4 | 0.00 | 0.00 | 0.00 | 90 | 1021.0 |
| 20260508115300 | 3 | 360 | 0.0 | 8.0 | 0.00 | 0.00 | 0.00 | 89 | 1021.0 |
| 20260508114300 | 3 | 360 | 3.2 | 8.0 | 0.00 | 0.00 | 0.00 | 88 | 1021.0 |
| 20260508113300 | 3 | 360 | 0.0 | 0.0 | 0.00 | 0.00 | 0.00 | 88 | 1020.3 |
| 20260508112300 | 3 | 256 | 0.0 | 0.0 | 0.00 | 0.00 | 0.00 | 88 | 1020.3 |
| 20260508111300 | 3 | 360 | 0.0 | 0.0 | 0.00 | 0.00 | 0.00 | 87 | 1020.3 |
| 20260508110300 | 4 | 256 | 0.0 | 0.0 | 0.00 | 0.00 | 0.00 | 87 | 1020.0 |
| 20260508105300 | 4 | 257 | 0.0 | 0.0 | 0.00 | 0.00 | 0.00 | 87 | 1019.6 |
| 20260508104300 | 4 | 360 | 0.0 | 0.0 | 0.00 | 0.00 | 0.00 | 87 | 1019.6 |
| 20260508103300 | 4 | 360 | 0.0 | 0.0 | 0.00 | 0.00 | 0.00 | 87 | 1019.6 |
| 20260508102300 | 4 | 256 | 0.0 | 0.0 | 0.00 | 0.00 | 0.00 | 87 | 1019.6 |
| 20260508101300 | 5 | 360 | 0.0 | 0.0 | 0.00 | 0.00 | 0.00 | 87 | 1019.6 |
| 20260508100300 | 5 | 257 | 0.0 | 0.0 | 0.00 | 0.00 | 0.00 | 87 | 1019.3 |
| 20260508095300 | 5 | 257 | 0.0 | 0.0 | 0.00 | 0.00 | 0.00 | 86 | 1019.3 |
| 20260508094300 | 5 | 360 | 0.0 | 0.0 | 0.00 | 0.00 | 0.00 | 86 | 1019.3 |
| 20260508093300 | 5 | 257 | 0.0 | 0.0 | 0.00 | 0.00 | 0.00 | 86 | 1019.3 |
| 20260508092300 | 5 | 257 | 0.0 | 0.0 | 0.00 | 0.00 | 0.00 | 86 | 1019.0 |
| 20260508091300 | 5 | 257 | 0.0 | 0.0 | 0.00 | 0.00 | 0.00 | 86 | 1019.0 |
| 20260508090300 | 5 | 257 | 0.0 | 0.0 | 0.00 | 0.00 | 0.00 | 85 | 1019.0 |
| 20260508085300 | 6 | 254 | 0.0 | 0.0 | 0.00 | 0.00 | 0.00 | 85 | 1019.0 |
| 20260508083300 | 6 | 257 | 0.0 | 0.0 | 0.00 | 0.00 | 0.00 | 85 | 1018.6 |
| 20260508082300 | 6 | 257 | 0.0 | 0.0 | 0.00 | 0.00 | 0.00 | 85 | 1018.6 |
| 20260508081300 | 6 | 360 | 0.0 | 0.0 | 0.00 | 0.00 | 0.00 | 84 | 1018.3 |
| 20260508080300 | 6 | 257 | 0.0 | 0.0 | 0.00 | 0.00 | 0.00 | 84 | 1018.6 |
| 20260508075300 | 7 | 257 | 0.0 | 0.0 | 0.00 | 0.00 | 0.00 | 84 | 1018.3 |
| 20260508074300 | 7 | 360 | 0.0 | 0.0 | 0.00 | 0.00 | 0.00 | 84 | 1018.3 |
| 20260508073300 | 7 | 249 | 0.0 | 0.0 | 0.00 | 0.00 | 0.00 | 84 | 1018.3 |
| 20260508072300 | 7 | 360 | 0.0 | 0.0 | 0.00 | 0.00 | 0.00 | 84 | 1017.9 |
| 20260508071300 | 7 | 360 | 0.0 | 0.0 | 0.00 | 0.00 | 0.00 | 83 | 1018.3 |
| 20260508070300 | 8 | 360 | 0.0 | 0.0 | 0.00 | 0.00 | 0.00 | 83 | 1018.3 |
| 20260508065300 | 8 | 257 | 0.0 | 0.0 | 0.00 | 0.00 | 0.00 | 83 | 1018.3 |
| 20260508064300 | 8 | 257 | 0.0 | 0.0 | 0.00 | 0.00 | 0.00 | 83 | 1018.3 |
| 20260508063300 | 8 | 258 | 0.0 | 0.0 | 0.00 | 0.00 | 0.00 | 82 | 1018.3 |
| 20260508062300 | 8 | 258 | 0.0 | 0.0 | 0.00 | 0.00 | 0.00 | 82 | 1018.3 |
| 20260508061300 | 8 | 258 | 0.0 | 0.0 | 0.00 | 0.00 | 0.00 | 81 | 1017.9 |
| 20260508060300 | 9 | 258 | 0.0 | 0.0 | 0.00 | 0.00 | 0.00 | 82 | 1017.9 |
| 20260508054300 | 9 | 258 | 0.0 | 0.0 | 0.00 | 0.00 | 0.00 | 80 | 1017.9 |
| 20260508053300 | 10 | 360 | 0.0 | 0.0 | 0.00 | 0.00 | 0.00 | 79 | 1017.6 |
| 20260508052300 | 10 | 360 | 0.0 | 0.0 | 0.00 | 0.00 | 0.00 | 78 | 1017.6 |
| 20260508051300 | 10 | 360 | 0.0 | 0.0 | 0.00 | 0.00 | 0.00 | 78 | 1017.6 |
| 20260508045300 | 11 | 360 | 0.0 | 0.0 | 0.00 | 0.00 | 0.00 | 74 | 1017.6 |
| 20260508043300 | 12 | 360 | 0.0 | 8.0 | 0.00 | 0.00 | 0.00 | 71 | 1017.3 |
| 20260508042300 | 12 | 360 | 0.0 | 0.0 | 0.00 | 0.00 | 0.00 | 70 | 1016.9 |
| 20260508041300 | 13 | 360 | 0.0 | 0.0 | 0.00 | 0.00 | 0.00 | 68 | 1016.9 |
| 20260508035300 | 14 | 360 | 0.0 | 1.6 | 0.00 | 0.00 | 0.00 | 66 | 1016.6 |
| 20260508034300 | 15 | 360 | 0.0 | 0.0 | 0.00 | 0.00 | 0.00 | 63 | 1016.6 |
| 20260508033300 | 16 | 360 | 0.0 | 0.0 | 0.00 | 0.00 | 0.00 | 60 | 1016.3 |
| 20260508032300 | 17 | 360 | 0.0 | 0.0 | 0.00 | 0.00 | 0.00 | 59 | 1016.3 |
| 20260508031300 | 18 | 360 | 0.0 | 0.0 | 0.00 | 0.00 | 0.00 | 57 | 1015.9 |
| 20260508030300 | 18 | 360 | 0.0 | 0.0 | 0.00 | 0.00 | 0.00 | 56 | 1015.9 |
| 20260508025300 | 20 | 260 | 0.0 | 0.0 | 0.00 | 0.00 | 0.00 | 55 | 1015.9 |
| 20260508024300 | 21 | 261 | 0.0 | 0.0 | 0.00 | 0.00 | 0.00 | 54 | 1015.9 |
| 20260508023300 | 22 | 261 | 0.0 | 0.0 | 0.00 | 0.00 | 0.00 | 53 | 1015.9 |
| 20260508022300 | 22 | 360 | 0.0 | 0.0 | 0.00 | 0.00 | 0.00 | 54 | 1015.9 |
| 20260508021300 | 23 | 360 | 0.0 | 0.0 | 0.00 | 0.00 | 0.00 | 53 | 1015.9 |
| 20260508020300 | 23 | 261 | 0.0 | 0.0 | 0.00 | 0.00 | 0.00 | 52 | 1016.3 |
| 20260508015300 | 23 | 261 | 0.0 | 0.0 | 0.00 | 0.00 | 0.00 | 50 | 1016.3 |
| 20260508014300 | 23 | 260 | 0.0 | 0.0 | 0.00 | 0.00 | 0.00 | 49 | 1016.3 |
| 20260508012300 | 23 | 360 | 0.0 | 0.0 | 0.00 | 0.00 | 0.00 | 49 | 1016.3 |
| 20260508010300 | 22 | 297 | 0.0 | 11.3 | 0.00 | 0.00 | 0.00 | 52 | 1016.6 |
| 20260508005300 | 22 | 263 | 0.0 | 11.3 | 0.00 | 0.00 | 0.00 | 52 | 1016.6 |
| 20260508004300 | 22 | 273 | 0.0 | 1.6 | 0.00 | 0.00 | 0.00 | 52 | 1016.6 |
| 20260508003300 | 22 | 254 | 0.0 | 1.6 | 0.00 | 0.00 | 0.00 | 54 | 1016.6 |
| 20260508002300 | 22 | 282 | 0.0 | 8.0 | 0.00 | 0.00 | 0.00 | 53 | 1016.6 |
| 20260508000300 | 22 | 360 | 0.0 | 9.7 | 0.00 | 0.00 | 0.00 | 53 | 1016.9 |
| 20260507235300 | 22 | 295 | 0.0 | 3.2 | 0.00 | 0.00 | 0.00 | 55 | 1016.9 |
| 20260507234300 | 22 | 265 | 0.0 | 3.2 | 0.00 | 0.00 | 0.00 | 55 | 1016.9 |
| 20260507233300 | 22 | 256 | 0.0 | 16.1 | 0.00 | 0.00 | 0.00 | 57 | 1016.9 |
| 20260507232300 | 22 | 244 | 0.0 | 4.8 | 0.00 | 0.00 | 0.00 | 58 | 1017.3 |
| 20260507230300 | 22 | 259 | 0.0 | 4.8 | 0.00 | 0.00 | 0.00 | 61 | 1017.3 |
| 20260507225300 | 21 | 225 | 0.0 | 12.9 | 0.00 | 0.00 | 0.00 | 61 | 1017.6 |
| 20260507224300 | 21 | 244 | 0.0 | 12.9 | 0.00 | 0.00 | 0.00 | 61 | 1017.6 |
| 20260507223300 | 21 | 254 | 0.0 | 16.1 | 0.00 | 0.00 | 0.00 | 61 | 1017.6 |
| 20260507222300 | 21 | 271 | 0.0 | 9.7 | 0.00 | 0.00 | 0.00 | 62 | 1017.6 |
| 20260507221300 | 21 | 275 | 0.0 | 11.3 | 0.00 | 0.00 | 0.00 | 63 | 1017.9 |
| 20260507220300 | 20 | 267 | 0.0 | 9.7 | 0.00 | 0.00 | 0.00 | 65 | 1017.9 |
| 20260507215300 | 20 | 279 | 0.0 | 6.4 | 0.00 | 0.00 | 0.00 | 66 | 1017.9 |
| 20260507214300 | 20 | 265 | 0.0 | 11.3 | 0.00 | 0.00 | 0.00 | 66 | 1018.3 |
| 20260507213300 | 20 | 219 | 1.6 | 12.9 | 0.00 | 0.00 | 0.00 | 69 | 1018.3 |
| 20260507212300 | 19 | 238 | 1.6 | 14.5 | 0.00 | 0.00 | 0.00 | 68 | 1018.3 |
| 20260507211300 | 19 | 236 | 3.2 | 14.5 | 0.00 | 0.00 | 0.00 | 70 | 1018.3 |
| 20260507205300 | 18 | 271 | 0.0 | 14.5 | 0.00 | 0.00 | 0.00 | 72 | 1018.6 |
| 20260507204300 | 18 | 261 | 0.0 | 11.3 | 0.00 | 0.00 | 0.00 | 73 | 1019.0 |
| 20260507203300 | 18 | 259 | 0.0 | 9.7 | 0.00 | 0.00 | 0.00 | 74 | 1019.0 |
| 20260507202300 | 18 | 266 | 0.0 | 9.7 | 0.00 | 0.00 | 0.00 | 74 | 1019.0 |
| 20260507201300 | 17 | 250 | 0.0 | 9.7 | 0.00 | 0.00 | 0.00 | 77 | 1019.3 |
| 20260507195300 | 17 | 222 | 0.0 | 11.3 | 0.00 | 0.00 | 0.00 | 77 | 1019.3 |
| 20260507194300 | 17 | 196 | 0.0 | 9.7 | 0.00 | 0.00 | 0.00 | 78 | 1019.6 |
| 20260507193300 | 17 | 296 | 0.0 | 6.4 | 0.00 | 0.00 | 0.00 | 81 | 1019.6 |
| 20260507192300 | 16 | 252 | 1.6 | 11.3 | 0.00 | 0.00 | 0.00 | 81 | 1019.6 |
| 20260507191300 | 16 | 229 | 0.0 | 14.5 | 0.00 | 0.00 | 0.00 | 83 | 1020.0 |
| 20260507190300 | 15 | 230 | 0.0 | 8.0 | 0.00 | 0.00 | 0.00 | 83 | 1020.0 |
| 20260507185300 | 15 | 235 | 0.0 | 4.8 | 0.00 | 0.00 | 0.00 | 83 | 1020.0 |
| 20260507184300 | 15 | 227 | 0.0 | 4.8 | 0.00 | 0.00 | 0.00 | 84 | 1020.0 |
| 20260507183300 | 15 | 245 | 0.0 | 3.2 | 0.00 | 0.00 | 0.00 | 84 | 1020.0 |
| 20260507182300 | 14 | 251 | 0.0 | 0.0 | 0.00 | 0.00 | 0.00 | 85 | 1020.0 |
| 20260507181300 | 14 | 360 | 0.0 | 0.0 | 0.00 | 0.00 | 0.00 | 87 | 1020.0 |
| 20260507175300 | 13 | 253 | 0.0 | 3.2 | 0.00 | 0.00 | 0.00 | 87 | 1020.3 |
| 20260507174300 | 13 | 246 | 0.0 | 4.8 | 0.00 | 0.00 | 0.00 | 88 | 1020.3 |
| 20260507173300 | 13 | 244 | 0.0 | 4.8 | 0.00 | 0.00 | 0.00 | 88 | 1020.3 |
| 20260507172300 | 13 | 251 | 0.0 | 0.0 | 0.00 | 0.00 | 0.00 | 89 | 1020.3 |
| 20260507171300 | 12 | 258 | 0.0 | 0.0 | 0.00 | 0.00 | 0.00 | 89 | 1020.3 |
| 20260507170300 | 12 | 257 | 0.0 | 4.8 | 0.00 | 0.00 | 0.00 | 89 | 1020.3 |
| 20260507165300 | 12 | 257 | 0.0 | 4.8 | 0.00 | 0.00 | 0.00 | 90 | 1020.3 |
| 20260507164300 | 12 | 360 | 0.0 | 0.0 | 0.00 | 0.00 | 0.00 | 90 | 1020.7 |
| 20260507163300 | 12 | 360 | 0.0 | 0.0 | 0.00 | 0.00 | 0.00 | 90 | 1020.7 |
| 20260507154300 | 11 | 360 | 0.0 | 0.0 | 0.00 | 0.00 | 0.00 | 89 | 1020.7 |
| 20260507153300 | 11 | 360 | 0.0 | 0.0 | 0.00 | 0.00 | 0.00 | 89 | 1020.7 |
| 20260507152300 | 11 | 360 | 0.0 | 0.0 | 0.00 | 0.00 | 0.00 | 89 | 1020.7 |
| 20260507151300 | 11 | 360 | 0.0 | 0.0 | 0.00 | 0.00 | 0.00 | 89 | 1020.7 |
| 20260507145300 | 10 | 360 | 0.0 | 4.8 | 0.00 | 0.00 | 0.00 | 89 | 1020.7 |
| 20260507144300 | 10 | 360 | 0.0 | 4.8 | 0.00 | 0.00 | 0.00 | 89 | 1020.7 |
| 20260507143300 | 10 | 360 | 1.6 | 4.8 | 0.00 | 0.00 | 0.00 | 89 | 1020.7 |
| 20260507142300 | 10 | 360 | 0.0 | 0.0 | 0.00 | 0.00 | 0.00 | 89 | 1020.7 |
| 20260507141300 | 10 | 360 | 0.0 | 0.0 | 0.00 | 0.00 | 0.00 | 88 | 1020.7 |